Regional Weather Roundup
Issued by NWS

Home | Current Version | Previous Version | Text Only | Print | Product List | Glossary On
Versions: 1 2 3 4 5 6 7 8 9 10 11 12 13 14 15 16 17 18 19 20 21 22 23 24 25 26 27 28 29 30 31 32 33 34 35 36 37 38 39 40 41 42 43 44 45 46 47 48 49 50
000
ASUS45 KBOI 220410
RWRID

IDAHO REGIONAL WEATHER ROUNDUP
NATIONAL WEATHER SERVICE BOISE ID
1000 PM MDT MON AUG 21 2017

NOTE: "FAIR" INDICATES FEW OR NO CLOUDS BELOW 12000 FEET
WITH NO SIGNIFICANT WEATHER AND/OR OBSTRUCTIONS TO VISIBILITY

IDZ012-014-220500-
SOUTHWEST IDAHO


CITY           SKY/WX    TMP DP  RH WIND       PRES   REMARKS
BOISE          CLEAR     77  44  30 CALM      30.05R
CALDWELL       CLEAR     73  48  41 CALM      30.03R
MOUNTAIN HOME  CLEAR     71  38  30 NW9       30.06R
$$

IDZ016-017-220500-
SOUTHCENTRAL IDAHO


CITY           SKY/WX    TMP DP  RH WIND       PRES   REMARKS
BURLEY         CLEAR     59  48  67 CALM      30.14R
JEROME         CLEAR     65  42  43 SE5       30.13R
TWIN FALLS     CLEAR     64  40  41 S9        30.14R
$$

IDZ019>023-220500-
SOUTHEAST IDAHO


CITY           SKY/WX    TMP DP  RH WIND       PRES   REMARKS
IDAHO FALLS    CLEAR     60  43  53 SE3       30.19R
POCATELLO      CLEAR     62  34  35 S8        30.17R
REXBURG        CLEAR     63  41  44 CALM      30.19R
$$

IDZ006-010-011-018-031-032-220500-
CENTRAL IDAHO MOUNTAINS


CITY           SKY/WX    TMP DP  RH WIND       PRES   REMARKS
MCCALL         CLEAR     65  36  34 CALM      30.19R
HAILEY         CLEAR     57  48  72 CALM      30.23R
STANLEY          N/A     57  32  38 S6        30.29R
SALMON         CLEAR     61  42  49 CALM      30.13R
CHALLIS        CLEAR     67  36  31 NW7       30.17R
$$

IDZ002-004-006-007-026-220500-
NORTHERN IDAHO


CITY           SKY/WX    TMP DP  RH WIND       PRES   REMARKS
LEWISTON       CLEAR     78  38  23 S7        30.01R
LOWELL           N/A     65  50  58 CALM      30.04R
COEUR D`ALENE  CLEAR     71  45  39 E5        30.08S
MULLAN PASS    CLEAR     61  37  41 N5        30.29R
$$



USA.gov is the U.S. government's official web portal to all federal, state and local government web resources and services.